TimeAKDT,TemperatureF,Dew PointF,Humidity,Sea Level PressureIn,VisibilityMPH,Wind Direction,Wind SpeedMPH,Gust SpeedMPH,PrecipitationIn,Events,Conditions,WindDirDegrees,DateUTC
12:16 AM,8.6,6.8,92,30.17,10.0,NNW,6.9,-,N/A,,Clear,330,2013-05-03 08:16:00
12:36 AM,6.8,5.0,92,30.17,10.0,Calm,Calm,-,N/A,,Clear,0,2013-05-03 08:36:00
12:56 AM,6.8,5.0,92,30.17,10.0,North,4.6,-,N/A,,Clear,360,2013-05-03 08:56:00
1:16 AM,3.2,1.4,92,30.18,10.0,Calm,Calm,-,N/A,,Clear,0,2013-05-03 09:16:00
1:36 AM,3.2,3.2,100,30.18,10.0,Calm,Calm,-,N/A,,Clear,0,2013-05-03 09:36:00
1:56 AM,3.2,3.2,100,30.18,10.0,Calm,Calm,-,N/A,,Clear,0,2013-05-03 09:56:00
2:16 AM,3.2,3.2,100,30.18,10.0,Calm,Calm,-,N/A,,Clear,0,2013-05-03 10:16:00
2:36 AM,-2.2,-13.0,60,30.18,10.0,Calm,Calm,-,N/A,,Clear,0,2013-05-03 10:36:00
2:56 AM,-2.2,-11.2,66,30.18,10.0,Calm,Calm,-,N/A,,Clear,0,2013-05-03 10:56:00
3:16 AM,-0.4,-0.4,100,30.18,10.0,Calm,Calm,-,N/A,,Clear,0,2013-05-03 11:16:00
3:36 AM,-5.8,-7.6,92,30.18,10.0,Calm,Calm,-,N/A,,Clear,0,2013-05-03 11:36:00
3:56 AM,-2.2,-5.8,85,30.18,10.0,Calm,Calm,-,N/A,,Clear,0,2013-05-03 11:56:00
4:16 AM,-0.4,-9999,N/A,30.18,10.0,Calm,Calm,-,N/A,,Clear,0,2013-05-03 12:16:00
4:36 AM,-5.8,-22.0,46,30.18,10.0,Calm,Calm,-,N/A,,Clear,0,2013-05-03 12:36:00
4:56 AM,-7.6,-9.4,92,30.19,10.0,Calm,Calm,-,N/A,,Clear,0,2013-05-03 12:56:00
5:16 AM,-9.4,-11.2,92,30.19,10.0,Calm,Calm,-,N/A,,Clear,0,2013-05-03 13:16:00
5:36 AM,-5.8,-14.8,65,30.19,10.0,SSE,4.6,-,N/A,,Clear,160,2013-05-03 13:36:00
5:56 AM,-7.6,-7.6,100,30.19,10.0,Calm,Calm,-,N/A,,Clear,0,2013-05-03 13:56:00
6:16 AM,-7.6,-11.2,84,30.19,10.0,Calm,Calm,-,N/A,,Clear,0,2013-05-03 14:16:00
6:36 AM,-5.8,-9999,N/A,30.19,7.0,Calm,Calm,-,N/A,,Clear,0,2013-05-03 14:36:00
6:56 AM,-7.6,-18.4,59,30.19,1.8,Calm,Calm,-,N/A,,Clear,0,2013-05-03 14:56:00
7:16 AM,-7.6,-7.6,100,30.19,1.2,Calm,Calm,-,N/A,,Clear,0,2013-05-03 15:16:00
7:36 AM,-7.6,-18.4,59,30.19,1.0,Calm,Calm,-,N/A,,Overcast,0,2013-05-03 15:36:00
7:56 AM,-5.8,-5.8,100,30.19,0.5,South,3.5,-,N/A,,Overcast,180,2013-05-03 15:56:00
8:16 AM,-5.8,-7.6,92,30.19,0.5,South,4.6,-,N/A,,Overcast,180,2013-05-03 16:16:00
8:36 AM,-4.0,-16.6,55,30.19,2.5,Calm,Calm,-,N/A,,Scattered Clouds,0,2013-05-03 16:36:00
8:56 AM,-2.2,-5.8,85,30.20,4.0,Calm,Calm,-,N/A,,Clear,0,2013-05-03 16:56:00
9:16 AM,-0.4,-0.4,100,30.20,3.0,Calm,Calm,-,N/A,,Mostly Cloudy,0,2013-05-03 17:16:00
9:36 AM,-0.4,-5.8,78,30.20,1.2,Calm,Calm,-,N/A,,Overcast,0,2013-05-03 17:36:00
9:56 AM,1.4,-11.2,56,30.20,2.0,Calm,Calm,-,N/A,,Mostly Cloudy,0,2013-05-03 17:56:00
10:16 AM,3.2,-5.8,66,30.19,5.0,Calm,Calm,-,N/A,,Clear,0,2013-05-03 18:16:00
10:36 AM,3.2,-0.4,85,30.20,5.0,Calm,Calm,-,N/A,,Clear,0,2013-05-03 18:36:00
10:56 AM,6.8,3.2,85,30.20,8.0,South,3.5,-,N/A,,Clear,170,2013-05-03 18:56:00
11:16 AM,6.8,6.8,100,30.20,10.0,South,3.5,-,N/A,,Clear,170,2013-05-03 19:16:00
11:36 AM,8.6,8.6,100,30.20,10.0,Calm,Calm,-,N/A,,Clear,0,2013-05-03 19:36:00
11:56 AM,10.4,8.6,92,30.20,10.0,Calm,Calm,-,N/A,,Clear,0,2013-05-03 19:56:00
12:16 PM,10.4,6.8,85,30.20,10.0,ENE,3.5,-,N/A,,Clear,70,2013-05-03 20:16:00
12:36 PM,12.2,8.6,85,30.21,10.0,ESE,3.5,-,N/A,,Clear,120,2013-05-03 20:36:00
12:56 PM,14.0,8.6,79,30.21,10.0,Calm,Calm,-,N/A,,Clear,0,2013-05-03 20:56:00
1:16 PM,14.0,8.6,79,30.21,10.0,Calm,Calm,-,N/A,,Clear,0,2013-05-03 21:16:00
1:36 PM,14.0,10.4,86,30.21,10.0,WNW,4.6,-,N/A,,Clear,290,2013-05-03 21:36:00
1:56 PM,15.8,10.4,79,30.21,10.0,WNW,9.2,-,N/A,,Clear,300,2013-05-03 21:56:00
2:16 PM,15.8,10.4,79,30.21,10.0,West,9.2,16.1,N/A,,Scattered Clouds,280,2013-05-03 22:16:00
2:36 PM,17.6,10.4,73,30.21,5.0,WNW,16.1,-,N/A,,Scattered Clouds,290,2013-05-03 22:36:00
2:56 PM,17.6,12.2,79,30.21,3.0,WNW,17.3,-,N/A,,Mostly Cloudy,290,2013-05-03 22:56:00
3:16 PM,17.6,12.2,79,30.21,2.5,West,17.3,-,N/A,,Overcast,280,2013-05-03 23:16:00
3:36 PM,17.6,12.2,79,30.21,3.0,WNW,16.1,-,N/A,,Overcast,290,2013-05-03 23:36:00
3:56 PM,17.6,12.2,79,30.21,2.0,WNW,16.1,-,N/A,,Overcast,290,2013-05-03 23:56:00
4:16 PM,17.6,12.2,79,30.20,4.0,WNW,17.3,-,N/A,,Overcast,290,2013-05-04 00:16:00
4:36 PM,17.6,12.2,79,30.20,7.0,WNW,17.3,-,N/A,,Overcast,300,2013-05-04 00:36:00
4:56 PM,17.6,10.4,73,30.20,4.0,WNW,18.4,-,N/A,,Overcast,300,2013-05-04 00:56:00
5:16 PM,17.6,12.2,79,30.20,10.0,WNW,15.0,-,N/A,,Overcast,300,2013-05-04 01:16:00
5:36 PM,17.6,12.2,79,30.20,7.0,WNW,15.0,-,N/A,,Overcast,300,2013-05-04 01:36:00
5:56 PM,17.6,12.2,79,30.20,10.0,NW,15.0,-,N/A,,Overcast,310,2013-05-04 01:56:00
6:16 PM,17.6,14.0,86,30.20,10.0,NW,13.8,-,N/A,,Overcast,310,2013-05-04 02:16:00
6:36 PM,17.6,14.0,86,30.20,10.0,NW,13.8,-,N/A,,Overcast,310,2013-05-04 02:36:00
6:56 PM,17.6,12.2,79,30.20,10.0,NW,13.8,-,N/A,,Overcast,310,2013-05-04 02:56:00
7:16 PM,17.6,12.2,79,30.20,8.0,WNW,13.8,-,N/A,,Overcast,300,2013-05-04 03:16:00
7:36 PM,17.6,12.2,79,30.20,10.0,WNW,13.8,-,N/A,,Overcast,300,2013-05-04 03:36:00
7:56 PM,17.6,12.2,79,30.20,6.0,NW,15.0,-,N/A,,Overcast,310,2013-05-04 03:56:00
8:16 PM,17.6,12.2,79,30.20,10.0,NW,11.5,-,N/A,,Mostly Cloudy,310,2013-05-04 04:16:00
8:36 PM,17.6,12.2,79,30.20,3.0,NW,10.4,-,N/A,,Overcast,310,2013-05-04 04:36:00
8:56 PM,15.8,12.2,86,30.20,7.0,WNW,11.5,-,N/A,,Overcast,290,2013-05-04 04:56:00
9:16 PM,15.8,12.2,86,30.20,3.0,NW,10.4,-,N/A,,Overcast,310,2013-05-04 05:16:00
9:36 PM,15.8,12.2,86,30.20,3.0,WNW,12.7,-,N/A,,Overcast,300,2013-05-04 05:36:00
9:56 PM,15.8,12.2,86,30.20,6.0,WNW,10.4,-,N/A,,Overcast,300,2013-05-04 05:56:00
10:16 PM,15.8,12.2,86,30.20,3.0,WNW,11.5,-,N/A,,Overcast,300,2013-05-04 06:16:00
10:36 PM,15.8,10.4,79,30.21,2.5,NW,12.7,-,N/A,,Overcast,320,2013-05-04 06:36:00
10:56 PM,14.0,10.4,86,30.21,1.0,NW,10.4,-,N/A,,Overcast,310,2013-05-04 06:56:00
11:16 PM,12.2,10.4,92,30.20,7.0,WNW,11.5,-,N/A,,Overcast,300,2013-05-04 07:16:00
11:36 PM,12.2,10.4,92,30.21,7.0,NW,9.2,-,N/A,,Overcast,320,2013-05-04 07:36:00
11:56 PM,12.2,10.4,92,30.20,5.0,NW,10.4,16.1,N/A,,Overcast,310,2013-05-04 07:56:00